Regional Weather Roundup
Issued by NWS

Home | Current Version | Previous Version | Graphics & Text | Print | Product List | Glossary On
Versions: 1 2 3 4 5 6 7 8 9 10 11 12 13 14 15 16 17 18 19 20 21 22 23 24 25 26 27 28 29 30 31 32 33 34 35 36 37 38 39 40 41 42 43 44 45 46 47 48 49 50
000
ASUS43 KMKX 251721
RWRWI

WISCONSIN REGIONAL WEATHER ROUNDUP
NATIONAL WEATHER SERVICE MILWAUKEE/SULLIVAN WI
1200 PM CDT TUE APR 25 2017

NOTE: "FAIR" INDICATES FEW OR NO CLOUDS BELOW 12,000 FEET WITH NO
SIGNIFICANT WEATHER AND/OR OBSTRUCTIONS TO VISIBILITY.

WIZ001-002-006>008-014>016-023>028-251800-
NORTHWEST WISCONSIN

CITY           SKY/WX    TMP DP  RH WIND       PRES   REMARKS
SUPERIOR ARPT  CLOUDY    44  37  78 NE10G16   29.64R
ASHLAND        CLOUDY    53  39  59 NE7       29.60R
HAYWARD        CLOUDY    65  36  34 SW3       29.57R
SIREN          CLOUDY    63  41  45 CALM      29.56S
CUMBERLAND     CLOUDY    64  36  34 S3        29.55R
RICE LAKE      CLOUDY    69  37  30 SE8       29.56R
CHETEK         CLOUDY    70  42  37 MISG      29.55S
LADYSMITH      CLOUDY    68  38  33 S8        29.58F
EAU CLAIRE     PTSUNNY   71  40  32 S10G20    29.53F
MENOMONIE      MOSUNNY   71  40  32 SE8       29.53S
NEW RICHMOND   PTSUNNY   67  39  35 SW8       29.54S
OSCEOLA        CLOUDY    65  40  39 S5        29.57S
$$

WIZ003>005-009-010-017-018-251800-
NORTH CENTRAL WISCONSIN

CITY           SKY/WX    TMP DP  RH WIND       PRES   REMARKS
MANITOWISH WTR CLOUDY    65  37  35 S10       29.60F
ARBOR VITAE    MOSUNNY   68  37  31 S10       29.61S
WOODRUFF       MOSUNNY   68  37  31 S10       29.61S
RHINELANDER    CLOUDY    69  39  33 SE13      29.63S
EAGLE RIVER    SUNNY     70  32  24 S8        29.62F
LAND O LAKES   CLOUDY    69  33  25 SW8       29.64S
PHILLIPS       CLOUDY    70  40  33 S7        29.57F
TOMAHAWK       PTSUNNY   69  39  34 S3        29.61F
MEDFORD        SUNNY     66  42  41 SE7       29.60S
MERRILL        SUNNY     69  42  37 S6        29.61F
$$

WIZ029-030-035-036-043>047-251800-
CENTRAL WISCONSIN

CITY           SKY/WX    TMP DP  RH WIND       PRES   REMARKS
WAUSAU         MOSUNNY   69  42  37 S10       29.59F
MOSINEE        PTSUNNY   70  43  37 S10       29.62F
MARSHFIELD     MOSUNNY   70  41  34 S8        29.58F
STEVENS POINT  MOSUNNY   69  41  36 SE5       29.61F
WAUPACA        SUNNY     74  44  34 SE12      29.62F
WAUTOMA        MOSUNNY   71  44  37 S12       29.61F
WISC RAPIDS    MOSUNNY   73  40  30 VRB6G16   29.60
CAMP DOUGLAS   PTSUNNY   70  41  35 E13       29.58F
$$

WIZ011>013-019>022-031-037>040-048>050-251800-
NORTHEAST WISCONSIN

CITY           SKY/WX    TMP DP  RH WIND       PRES   REMARKS
ANTIGO         CLOUDY    68  43  40 SE14      29.63F
SHAWANO        SUNNY     72  46  40 SE9       29.64F
OCONTO         SUNNY     63  48  59 S10       29.67F
STURGEON BAY   SUNNY     59  49  69 S21G30    29.70R
GREEN BAY      SUNNY     68  52  56 SE12      29.65F
MANITOWOC      SUNNY     54  46  74 SE15G25   29.70S
APPLETON       MOSUNNY   68  41  37 SE14G20   29.64S
CLINTONVILLE   SUNNY     70  43  37 S13       29.63F
OSHKOSH        SUNNY     72  47  40 S13G22    29.63F
$$

WIZ032>034-041-042-053>061-251800-
SOUTHWEST WISCONSIN

CITY           SKY/WX    TMP DP  RH WIND       PRES   REMARKS
LA CROSSE      CLOUDY    71  43  36 S8        29.55S
SPARTA         CLOUDY    72  41  32 SE6       29.57F
VIROQUA        CLOUDY    69  40  34 SE8       29.57F
BOSCOBEL       PTSUNNY   72  42  34 S5        29.58F
PRAIRIE DU CHI PTSUNNY   69  40  34 SE7       29.56S
PLATTEVILLE    CLOUDY    70  44  38 S10       29.60F
$$

WIZ056-057-062-063-064-067-068-251800-
SOUTH CENTRAL WISCONSIN

CITY           SKY/WX    TMP DP  RH WIND       PRES   REMARKS
REEDSBURG      PTSUNNY   70  44  38 SE10      29.59F
BARABOO/DELLS  PTSUNNY   70  40  34 SE9       29.60F
LONE ROCK      MOSUNNY   72  45  37 S9        29.58F
MINERAL POINT  CLOUDY    70  45  40 SE10      29.61S
MADISON        PTSUNNY   71  42  35 S14       29.61F
MIDDLETON      MOSUNNY   72  42  33 S14       29.62S
WATERTOWN      CLOUDY    72  46  39 S13       29.63F
MONROE         MOSUNNY   70  39  32 S16G23    29.62S
JANESVILLE     PTSUNNY   73  41  31 S14G20    29.63F
$$

WIZ051-052-058>065-066-070>072-251800-
SOUTHEAST WISCONSIN

CITY           SKY/WX    TMP DP  RH WIND       PRES   REMARKS
MILWAUKEE      PTSUNNY   63  51  65 SE14      29.68S
WAUKESHA       SUNNY     70  43  37 S12G21    29.66F
MILWAUKEE/TIMM SUNNY     72  43  35 S14       29.67F
RACINE         MOSUNNY   60  49  66 S16       29.70S
KENOSHA        CLOUDY    70  53  54 SE13      29.67F
FOND DU LAC    SUNNY     72  47  40 S15G21    29.64F
SHEBOYGAN      SUNNY     58  51  78 SE12      29.69F
WEST BEND      SUNNY     68  50  52 E9        29.66S
JUNEAU         SUNNY     71  46  40 SE9G23    29.65F
$$

LSZ147-162-251800-
LAKE SUPERIOR

STATION/POSITION TIME  TEMP    WIND        PRES    WAVE
                       AIR SEA DIR/SP/G            HT/PER
                 (UTC) (F)     (DEG/KT/KT) (MB)    (FT/S)
DEVILS ISLAND    1700   40      90/ 10/ 11 1003.7R
PORT WING        1440   38      30/ 13/ 16 1002.7
SAXON HARBOR     1630   43     310/  4/  4 1002.4S
$$

LMZ867-665-643>646-251800-
LAKE MICHIGAN

STATION/POSITION TIME  TEMP    WIND        PRES    WAVE
                       AIR SEA DIR/SP/G            HT/PER
                 (UTC) (F)     (DEG/KT/KT) (MB)    (FT/S)
CHAMBERS ISLAND  1640   59     160/  8/ 14 1005.8R
N MID LAKE BUOY  1650   41 37  110/  6/  6 1007.5F   2/ 4
NORTHPORT PIER   1640   53     150/ 11/ 19 1006.1S
KEWAUNEE LAKESHO 1654   47     170/  9/ 12 1005.9S
SHEBOYGAN LAKESH 1700   45     170/  5/  6 1005.9F
PORT WASHINGTON  1640   48     130/  5/  6 1006.4F
MILWAUKEE LAKESH 1700   47     140/ 17/ 18   N/A
S MID LAKE BUOY  1650   47 41  130/  8/ 10 1006.8F   1/ 3
KENOSHA   LAKESH 1700   51     160/  9/ 10 1005.4
$$

TC  - TEMPERATURE IN CELSIUS
VSB - VISIBILITY IN STATUTE MILES
WCI - WIND CHILL INDEX
HX  - HEAT INDEX





USA.gov is the U.S. government's official web portal to all federal, state and local government web resources and services.